[[{"header":{"parameterUnit":"m.s-1","parameterCategory":1,"la1":30.2991,"la2":30.254,"lo1":-89.0895,"lo2":-89.0444,"dy":0.0017,"dx":0.0017,"nx":28,"ny":28,"refTime":"2024-04-11T09:00:00:Z","depth":0,"parameterNumber":2,"parameterNumberName":"U-component_of_WINDS"},"data":[0,0,0,0,0,0,0,0,0,0,0,0,0,0,0,0,0,0,0,0,0,0,0,0,0,0,0,0,0,0,0,0,0,0,0,0,0,0,0,0,0,0,0,0,0,0,0,0,0,0,0,0,0,0,0,0,0,0,0.7884,0.7884,0,0.788,0.788,0.788,0.7869,0.7868,0.7868,0.7868,0.7862,0.7862,0.7862,0,0,0,0,0,0,0,0,0,0,0,0,0,0.7882,0.7883,0.7884,0.7884,0.7884,0.788,0.788,0.7879,0.7869,0.7868,0.7868,0.7868,0.7862,0.7862,0.7862,0,0,0,0,0,0,0,0,0,0,0,0,0,0.7881,0.7883,0.7884,0.7878,0.7877,0.788,0.788,0.7879,0.7869,0.7868,0.7868,0.7868,0.7862,0.7862,0.7862,0.787,0,0,0.7863,0.7863,0,0,0,0,0,0,0,0,0.7881,0.7881,0.7879,0.7878,0.7878,0.7874,0.7877,0.7876,0.7869,0.7872,0.7868,0.7868,0.7867,0.7866,0.7866,0.7869,0.7869,0.7863,0.7863,0.7863,0.7863,0,0,0,0,0,0,0,0.7881,0.7881,0.7882,0.7879,0.7878,0.7875,0.7875,0.7877,0.7871,0.7872,0.7871,0.7871,0.7866,0.7866,0.7866,0.7869,0.7863,0.7863,0.7863,0.7863,0.7879,0.7879,0,0,0,0,0,0,0.7882,0.7881,0.7882,0.7882,0.7879,0.7876,0.7875,0.7876,0.7871,0.787,0.7871,0.787,0.7866,0.7866,0.7866,0.7874,0.7863,0.7863,0.7863,0.7879,0.7879,0.788,0,0,0,0,0,0,0.7882,0.7883,0.7882,0.7882,0.7881,0.7876,0.7877,0.7876,0.7876,0.7871,0.7869,0.7872,0.7866,0.7866,0.7869,0.7874,0.7863,0.7863,0.7878,0.7879,0.7879,0.7891,0,0,0,0,0,0,0.7882,0.7883,0.7885,0.7882,0.7881,0.7886,0.7877,0.7876,0.7876,0.7875,0.7871,0.787,0.7866,0.7869,0.7869,0.7874,0.7863,0.7878,0.7879,0.7879,0.789,0.7892,0.7894,0,0,0,0,0,0.7882,0.7888,0.7885,0.7886,0.7885,0.7886,0.7886,0.7881,0.7877,0.7879,0.7876,0.787,0.7874,0.7869,0.787,0.7874,0.7877,0.7878,0.7879,0.789,0.7892,0.7894,0,0,0,0,0,0,0.7892,0.7888,0.7884,0.7889,0.7889,0.7885,0.7888,0.7883,0.7883,0.7882,0.7876,0.7875,0.7879,0.7877,0.7873,0.7882,0.7875,0.7876,0.7883,0.7885,0.7886,0.7886,0.7863,0,0,0,0,0,0.7895,0.7897,0.7893,0.7898,0.7897,0.7893,0.7893,0.789,0.7888,0.7887,0.7884,0.7883,0.7884,0.7884,0.7884,0.789,0.789,0.7894,0.7896,0.7897,0.7898,0.7901,0.7903,0.7882,0.7882,0.7882,0,0,0.79,0.7898,0.7899,0.7899,0.7898,0.79,0.7892,0.7895,0.7896,0.7887,0.7891,0.7889,0.7887,0.7892,0.7894,0.789,0.7903,0.7898,0.7899,0.7899,0.7902,0.7904,0.7906,0.7883,0.7883,0.7883,0,0,0.7911,0.791,0.7914,0.7913,0.7912,0.7909,0.791,0.7907,0.7906,0.7909,0.7903,0.7905,0.7906,0.7905,0.7905,0.7917,0.7912,0.7918,0.7926,0.793,0.7931,0.7933,0.7937,0.7939,0.7918,0.7918,0.7918,0,0.7918,0.7921,0.7916,0.792,0.792,0.7913,0.7918,0.7917,0.7916,0.7916,0.7912,0.7914,0.7912,0.7918,0.7921,0.7921,0.7922,0.7918,0.7931,0.7933,0.7934,0.7938,0.794,0.7919,0.7919,0.7919,0.7919,0,0.7929,0.7932,0.7935,0.7935,0.7936,0.794,0.7936,0.7937,0.7934,0.7932,0.7936,0.7933,0.7934,0.7935,0.7931,0.794,0.7937,0.7933,0.7925,0.7937,0.7941,0.7942,0.792,0.792,0.792,0.7919,0,0,0.7945,0.7943,0.7945,0.7945,0.7944,0.7945,0.7949,0.795,0.7951,0.7951,0.7954,0.7956,0.7952,0.7952,0.7948,0.7952,0.7962,0.7947,0.7946,0.795,0.7972,0.7975,0.7977,0.7959,0.7959,0.796,0.7972,0,0.7955,0.7962,0.7959,0.7965,0.7968,0.7962,0.7966,0.7965,0.7964,0.7965,0.7963,0.7965,0.796,0.7959,0.7963,0.796,0.7967,0.7959,0.7962,0.7962,0.7962,0.7979,0.7982,0.7994,0.7974,0.7974,0.7974,0,0.7968,0.7969,0.7977,0.7976,0.7977,0.798,0.7981,0.7983,0.7983,0.7981,0.7982,0.7978,0.7981,0.7975,0.798,0.7976,0.7976,0.7976,0.7976,0.7976,0.7968,0.7979,0.7998,0.7999,0.7976,0.7976,0.7976,0,0.7979,0.7982,0.7987,0.7988,0.7987,0.7989,0.7989,0.7989,0.799,0.7991,0.7991,0.7993,0.7993,0.7994,0.7991,0.7987,0.7997,0.799,0.7996,0.7996,0.7997,0.7997,0.8016,0.7999,0.7999,0.7999,0.7999,0,0.799,0.7995,0.7992,0.7995,0.8001,0.7997,0.8003,0.8002,0.8002,0.8004,0.8,0.8002,0.7998,0.8,0.7998,0.8003,0.8003,0.8002,0.8001,0.8002,0.8002,0.8002,0.8001,0.7999,0.7999,0.7999,0.7999,0,0.8003,0.8001,0.8006,0.8006,0.8006,0.801,0.8009,0.8012,0.8011,0.8014,0.8015,0.8013,0.8015,0.8012,0.8015,0.8013,0.802,0.8018,0.802,0.8019,0.8025,0.8025,0.8044,0.8047,0.8028,0.8028,0.8028,0,0.801,0.8014,0.8014,0.8016,0.8016,0.8019,0.8021,0.8018,0.802,0.8021,0.8023,0.8026,0.8028,0.8032,0.8031,0.8033,0.8031,0.8037,0.8031,0.8032,0.8031,0.803,0.8031,0.8039,0.8039,0.8039,0.8039,0,0.8024,0.8023,0.8025,0.8028,0.803,0.8032,0.8033,0.8035,0.8032,0.8034,0.8037,0.8039,0.8042,0.8045,0.8046,0.8046,0.8042,0.8042,0.8043,0.8044,0.8045,0.8044,0.8023,0.8041,0.8041,0.804,0.804,0.804,0.8033,0.8037,0.8038,0.8041,0.8042,0.8044,0.8047,0.8046,0.8049,0.8052,0.805,0.8054,0.8054,0.8056,0.8057,0.806,0.8057,0.8059,0.8059,0.806,0.806,0.8045,0.806,0.806,0.806,0.806,0.806,0,0.8046,0.8047,0.805,0.8053,0.8056,0.8053,0.8055,0.8057,0.8061,0.8062,0.8064,0.8068,0.8071,0.807,0.8073,0.8075,0.8074,0.8076,0.8076,0.8076,0.8063,0.8061,0.8078,0.8078,0.8078,0.8078,0.8078,0.8078,0.8054,0.8059,0.8059,0.8065,0.8066,0.807,0.8071,0.8073,0.8074,0.8079,0.8082,0.8082,0.8082,0.8085,0.8088,0.8087,0.8088,0.8091,0.8091,0.8078,0.8077,0.8075,0.8073,0.8092,0.8092,0.8103,0.8103,0.8103]},{"header":{"parameterUnit":"m.s-1","parameterCategory":1,"la1":30.2991,"la2":30.254,"lo1":-89.0895,"lo2":-89.0444,"dy":0.0017,"dx":0.0017,"nx":28,"ny":28,"refTime":"2024-04-11T09:00:00:Z","depth":0,"parameterNumber":3,"parameterNumberName":"V-component_of_WINDS"},"data":[0,0,0,0,0,0,0,0,0,0,0,0,0,0,0,0,0,0,0,0,0,0,0,0,0,0,0,0,0,0,0,0,0,0,0,0,0,0,0,0,0,0,0,0,0,0,0,0,0,0,0,0,0,0,0,0,0,0,-2.3061,-2.3062,0,-2.3177,-2.3179,-2.318,-2.318,-2.3178,-2.3177,-2.3175,-2.3295,-2.3299,-2.3304,0,0,0,0,0,0,0,0,0,0,0,0,0,-2.2838,-2.2842,-2.3061,-2.3062,-2.3064,-2.3177,-2.3179,-2.318,-2.318,-2.3178,-2.3176,-2.3175,-2.3293,-2.3299,-2.3304,0,0,0,0,0,0,0,0,0,0,0,0,0,-2.2943,-2.2843,-2.306,-2.3077,-2.308,-2.3177,-2.3179,-2.3181,-2.3181,-2.3178,-2.3176,-2.3174,-2.3291,-2.3298,-2.3305,-2.3393,0,0,-2.3326,-2.3329,0,0,0,0,0,0,0,0,-2.2937,-2.2951,-2.3073,-2.3076,-2.3079,-2.3162,-2.3144,-2.3252,-2.3181,-2.3142,-2.3175,-2.3173,-2.3252,-2.3262,-2.3289,-2.3399,-2.3404,-2.3327,-2.3331,-2.3334,-2.3336,0,0,0,0,0,0,0,-2.293,-2.2946,-2.3107,-2.3075,-2.3079,-2.3079,-2.3091,-2.3165,-2.3209,-2.3146,-2.3146,-2.316,-2.3254,-2.3283,-2.3292,-2.3405,-2.3326,-2.3332,-2.3337,-2.3339,-2.3594,-2.3597,0,0,0,0,0,0,-2.2919,-2.294,-2.3103,-2.311,-2.3001,-2.3085,-2.3099,-2.3138,-2.3208,-2.3216,-2.3161,-2.3159,-2.3272,-2.3284,-2.3296,-2.3405,-2.3334,-2.334,-2.3344,-2.3592,-2.3595,-2.3598,0,0,0,0,0,0,-2.2914,-2.2933,-2.3098,-2.3025,-2.3046,-2.3091,-2.3135,-2.3141,-2.317,-2.322,-2.3228,-2.3183,-2.3271,-2.3286,-2.3369,-2.3409,-2.3343,-2.3349,-2.3588,-2.3592,-2.3596,-2.3622,0,0,0,0,0,0,-2.2908,-2.2932,-2.2965,-2.3026,-2.305,-2.3169,-2.3137,-2.3145,-2.3182,-2.318,-2.3242,-2.325,-2.327,-2.3359,-2.3376,-2.3417,-2.3355,-2.3585,-2.359,-2.3595,-2.3618,-2.3626,-2.3633,0,0,0,0,0,-2.29,-2.2968,-2.2967,-2.2987,-2.3093,-2.3172,-2.3186,-2.3207,-2.3185,-2.322,-2.3252,-2.3248,-2.3402,-2.3367,-2.3387,-2.343,-2.3583,-2.3589,-2.3594,-2.3614,-2.3624,-2.3633,0,0,0,0,0,0,-2.291,-2.2976,-2.2976,-2.3066,-2.3113,-2.3171,-2.3216,-2.3217,-2.3272,-2.3268,-2.3292,-2.3306,-2.3389,-2.3418,-2.3378,-2.352,-2.349,-2.35,-2.3498,-2.3508,-2.3516,-2.3507,-2.3361,0,0,0,0,0,-2.2923,-2.2981,-2.3035,-2.3109,-2.3133,-2.317,-2.3205,-2.3218,-2.3268,-2.3288,-2.3326,-2.3375,-2.3434,-2.3473,-2.353,-2.3622,-2.3636,-2.3661,-2.3669,-2.3676,-2.3684,-2.3736,-2.3748,-2.3617,-2.3617,-2.3617,0,0,-2.295,-2.2993,-2.3028,-2.3113,-2.3151,-2.3211,-2.3187,-2.3251,-2.3296,-2.3298,-2.3378,-2.3408,-2.3464,-2.3552,-2.3593,-2.3579,-2.3723,-2.3683,-2.3688,-2.3693,-2.3743,-2.3755,-2.3766,-2.3621,-2.362,-2.362,0,0,-2.303,-2.3068,-2.3134,-2.3173,-2.3232,-2.3256,-2.3272,-2.3331,-2.3351,-2.3432,-2.3435,-2.3488,-2.359,-2.363,-2.3664,-2.376,-2.3759,-2.3778,-2.3819,-2.3869,-2.388,-2.3889,-2.3924,-2.3936,-2.3786,-2.3786,-2.3786,0,-2.3056,-2.3147,-2.3168,-2.3233,-2.327,-2.3275,-2.3342,-2.3379,-2.3453,-2.3479,-2.3462,-2.359,-2.3628,-2.3726,-2.375,-2.3777,-2.3796,-2.3771,-2.3876,-2.3886,-2.3895,-2.3928,-2.3941,-2.3788,-2.3788,-2.3788,-2.3787,0,-2.3176,-2.3239,-2.3285,-2.3357,-2.34,-2.3465,-2.3497,-2.3538,-2.3547,-2.3573,-2.3656,-2.3702,-2.3769,-2.3793,-2.3803,-2.3893,-2.3883,-2.3871,-2.3841,-2.3909,-2.3941,-2.3954,-2.3791,-2.379,-2.379,-2.3789,0,0,-2.3266,-2.3349,-2.3366,-2.3399,-2.3464,-2.3513,-2.358,-2.3645,-2.368,-2.3731,-2.3788,-2.3874,-2.3864,-2.3902,-2.3916,-2.396,-2.4034,-2.3943,-2.3944,-2.3959,-2.4137,-2.4146,-2.416,-2.4034,-2.4036,-2.4038,-2.4133,0,-2.3353,-2.3471,-2.3493,-2.3595,-2.3654,-2.366,-2.3717,-2.3764,-2.379,-2.3844,-2.3873,-2.3934,-2.3916,-2.3939,-2.3983,-2.4016,-2.407,-2.4009,-2.4087,-2.4089,-2.4073,-2.4177,-2.4186,-2.4273,-2.4145,-2.4147,-2.4149,0,-2.3471,-2.3525,-2.3634,-2.3692,-2.3717,-2.3769,-2.3832,-2.3883,-2.3936,-2.3952,-2.3995,-2.4004,-2.4074,-2.4041,-2.4137,-2.4095,-2.4128,-2.4149,-2.4153,-2.4161,-2.4123,-2.4189,-2.4302,-2.4315,-2.4169,-2.4167,-2.4166,0,-2.3526,-2.3626,-2.3705,-2.3733,-2.3802,-2.3839,-2.3869,-2.392,-2.3959,-2.4013,-2.4039,-2.4101,-2.4135,-2.4183,-2.4208,-2.4182,-2.4303,-2.4272,-2.4319,-2.4319,-2.4345,-2.4343,-2.4465,-2.4365,-2.4365,-2.4365,-2.4365,0,-2.3621,-2.3688,-2.3731,-2.3779,-2.3854,-2.3878,-2.3952,-2.3982,-2.4027,-2.4082,-2.409,-2.4141,-2.4172,-2.4227,-2.4248,-2.4325,-2.434,-2.4356,-2.436,-2.4355,-2.4353,-2.4377,-2.4372,-2.4368,-2.4368,-2.4367,-2.4366,0,-2.3696,-2.3727,-2.3813,-2.3872,-2.3888,-2.3941,-2.3992,-2.4039,-2.4065,-2.4134,-2.4152,-2.4194,-2.426,-2.429,-2.4372,-2.4386,-2.4474,-2.4474,-2.4456,-2.4458,-2.4503,-2.4499,-2.4646,-2.4667,-2.4552,-2.4553,-2.4554,0,-2.3755,-2.3806,-2.3871,-2.3908,-2.394,-2.3999,-2.4039,-2.4065,-2.4106,-2.4171,-2.4211,-2.4277,-2.4331,-2.4436,-2.4474,-2.4537,-2.4539,-2.4586,-2.4548,-2.4542,-2.4541,-2.4537,-2.4543,-2.4593,-2.4594,-2.4595,-2.4596,0,-2.3856,-2.387,-2.3926,-2.3989,-2.4036,-2.4086,-2.4135,-2.4165,-2.42,-2.4245,-2.4313,-2.4355,-2.4439,-2.4505,-2.457,-2.4602,-2.4605,-2.4607,-2.4622,-2.4617,-2.4605,-2.4613,-2.4475,-2.4604,-2.4603,-2.4602,-2.4602,-2.4602,-2.3925,-2.3972,-2.4025,-2.4088,-2.4128,-2.4174,-2.4222,-2.4255,-2.4311,-2.4382,-2.4394,-2.4466,-2.4518,-2.4606,-2.4641,-2.4698,-2.4687,-2.4707,-2.4713,-2.4717,-2.472,-2.4595,-2.471,-2.4709,-2.4709,-2.4709,-2.4709,0,-2.4028,-2.4063,-2.412,-2.419,-2.4239,-2.4238,-2.4293,-2.4335,-2.4398,-2.4447,-2.4501,-2.4579,-2.4643,-2.4686,-2.4751,-2.4789,-2.4792,-2.4805,-2.4803,-2.4811,-2.4726,-2.4708,-2.4802,-2.4802,-2.4802,-2.4802,-2.4802,-2.4802,-2.4087,-2.4166,-2.4185,-2.4284,-2.4318,-2.4389,-2.4421,-2.4464,-2.4503,-2.459,-2.4643,-2.4671,-2.4718,-2.4787,-2.4846,-2.4857,-2.4881,-2.4895,-2.4905,-2.4826,-2.4816,-2.4807,-2.479,-2.4899,-2.49,-2.4985,-2.4986,-2.4986]}]]